Location: Devore Heights
(34.2372°N, 117.4156°W)
Time: 09:46:37
(UTC+00:00)

A-11 Canister half - Pass Details

Date: 16 September 2024
Orbit: 1515 x 1684 km, 47.2° (Epoch: 07 October)

Event Time Altitude Azimuth Distance (km) Brightness Sun altitude
Rises 10:37:47 0° 294° (WNW) 4,666 - -35.3°
Reaches altitude 10° 10:41:35 10° 281° (WNW) 3,694 - -34.6°
Maximum altitude 10:48:24 23° 233° (SW) 2,812 - -33.4°
Drops below altitude 10° 10:55:22 10° 185° (S) 3,763 - -32.2°
Exits shadow 10:59:11 - 172° (S) 4,733 11.4 -31.5°
Sets 10:59:19 0° 172° (S) 4,773 11.4 -31.4°
